Time,TemperatureF,DewpointF,PressureIn,WindDirection,WindDirectionDegrees,WindSpeedMPH,WindSpeedGustMPH,Humidity,HourlyPrecipIn,Conditions,Clouds,dailyrainin,SoftwareType,DateUTC
2013-06-10 00:03:00,61.0,54.0,30.18,North,0,0.0,-999.0,77,-99.99,,,-99.99,,2013-06-10 04:03:00,
2013-06-10 00:12:00,59.0,54.0,30.19,North,0,0.0,-999.0,82,-99.99,,,-99.99,,2013-06-10 04:12:00,
2013-06-10 00:23:00,61.0,55.0,30.18,North,0,0.0,-999.0,82,-99.99,,,-99.99,,2013-06-10 04:23:00,
2013-06-10 00:33:00,57.0,55.0,30.18,North,0,0.0,-999.0,93,-99.99,,,-99.99,,2013-06-10 04:33:00,
2013-06-10 00:42:00,59.0,55.0,30.19,North,0,0.0,-999.0,87,-99.99,,,-99.99,,2013-06-10 04:42:00,
2013-06-10 00:52:00,57.0,55.0,30.19,North,0,0.0,-999.0,93,-99.99,,,-99.99,,2013-06-10 04:52:00,
2013-06-10 01:02:00,57.0,55.0,30.19,North,0,0.0,-999.0,93,-99.99,,,-99.99,,2013-06-10 05:02:00,
2013-06-10 01:12:00,57.0,55.0,30.19,North,0,0.0,-999.0,93,-99.99,,,-99.99,,2013-06-10 05:12:00,
2013-06-10 01:22:00,57.0,55.0,30.19,North,0,0.0,-999.0,93,-99.99,,,-99.99,,2013-06-10 05:22:00,
2013-06-10 01:32:00,57.0,54.0,30.19,North,0,0.0,-999.0,87,-99.99,,,-99.99,,2013-06-10 05:32:00,
2013-06-10 01:42:00,57.0,55.0,30.19,North,0,0.0,-999.0,93,-99.99,,,-99.99,,2013-06-10 05:42:00,
2013-06-10 01:52:00,57.0,55.0,30.19,North,0,0.0,-999.0,93,-99.99,,,-99.99,,2013-06-10 05:52:00,
2013-06-10 02:02:00,57.0,55.0,30.19,North,0,0.0,-999.0,93,-99.99,,,-99.99,,2013-06-10 06:02:00,
2013-06-10 02:12:00,57.0,54.0,30.19,North,360,3.0,-999.0,87,-99.99,,,-99.99,,2013-06-10 06:12:00,
2013-06-10 02:22:00,57.0,54.0,30.18,North,0,0.0,-999.0,87,-99.99,,,-99.99,,2013-06-10 06:22:00,
2013-06-10 02:32:00,55.0,54.0,30.18,North,0,0.0,-999.0,93,-99.99,,,-99.99,,2013-06-10 06:32:00,
2013-06-10 02:42:00,55.0,54.0,30.18,North,0,0.0,-999.0,93,-99.99,,,-99.99,,2013-06-10 06:42:00,
2013-06-10 02:52:00,55.0,54.0,30.18,West,260,5.0,-999.0,93,-99.99,,,-99.99,,2013-06-10 06:52:00,
2013-06-10 03:02:00,55.0,54.0,30.18,West,260,5.0,-999.0,93,-99.99,,,-99.99,,2013-06-10 07:02:00,
2013-06-10 03:12:00,55.0,54.0,30.18,West,260,3.0,-999.0,93,-99.99,,,-99.99,,2013-06-10 07:12:00,
2013-06-10 03:22:00,55.0,54.0,30.18,North,0,0.0,-999.0,93,-99.99,,,-99.99,,2013-06-10 07:22:00,
2013-06-10 03:32:00,55.0,54.0,30.18,North,0,0.0,-999.0,93,-99.99,,,-99.99,,2013-06-10 07:32:00,
2013-06-10 03:42:00,55.0,54.0,30.18,North,0,0.0,-999.0,93,-99.99,,,-99.99,,2013-06-10 07:42:00,
2013-06-10 03:52:00,55.0,54.0,30.18,North,0,0.0,-999.0,93,-99.99,,,-99.99,,2013-06-10 07:52:00,
2013-06-10 04:02:00,55.0,54.0,30.18,North,0,0.0,-999.0,93,-99.99,,,-99.99,,2013-06-10 08:02:00,
2013-06-10 04:12:00,55.0,54.0,30.18,North,0,0.0,-999.0,93,-99.99,,,-99.99,,2013-06-10 08:12:00,
2013-06-10 04:22:00,54.0,54.0,30.19,North,0,0.0,-999.0,100,-99.99,,,-99.99,,2013-06-10 08:22:00,
2013-06-10 04:32:00,55.0,54.0,30.19,North,0,0.0,-999.0,93,-99.99,,,-99.99,,2013-06-10 08:32:00,
2013-06-10 04:42:00,55.0,54.0,30.18,North,0,0.0,-999.0,93,-99.99,,,-99.99,,2013-06-10 08:42:00,
2013-06-10 04:52:00,54.0,54.0,30.18,North,0,0.0,-999.0,100,-99.99,,,-99.99,,2013-06-10 08:52:00,
2013-06-10 05:02:00,54.0,54.0,30.18,North,0,0.0,-999.0,100,-99.99,,,-99.99,,2013-06-10 09:02:00,
2013-06-10 05:12:00,54.0,52.0,30.18,North,0,0.0,-999.0,93,-99.99,,,-99.99,,2013-06-10 09:12:00,
2013-06-10 05:22:00,54.0,52.0,30.18,North,0,0.0,-999.0,93,-99.99,,,-99.99,,2013-06-10 09:22:00,
2013-06-10 05:32:00,54.0,52.0,30.18,North,0,0.0,-999.0,93,-99.99,,,-99.99,,2013-06-10 09:32:00,
2013-06-10 05:42:00,54.0,52.0,30.18,North,0,0.0,-999.0,93,-99.99,,,-99.99,,2013-06-10 09:42:00,
2013-06-10 05:53:00,54.0,52.0,30.18,North,0,0.0,-999.0,93,-99.99,,,-99.99,,2013-06-10 09:53:00,
2013-06-10 06:03:00,54.0,52.0,30.18,North,0,0.0,-999.0,93,-99.99,,,-99.99,,2013-06-10 10:03:00,
2013-06-10 06:12:00,54.0,52.0,30.18,North,0,0.0,-999.0,93,-99.99,,,-99.99,,2013-06-10 10:12:00,
2013-06-10 06:22:00,54.0,52.0,30.18,North,0,0.0,-999.0,93,-99.99,,,-99.99,,2013-06-10 10:22:00,
2013-06-10 06:33:00,55.0,54.0,30.18,North,0,0.0,-999.0,93,-99.99,,,-99.99,,2013-06-10 10:33:00,
2013-06-10 06:42:00,55.0,54.0,30.18,North,0,0.0,-999.0,93,-99.99,,,-99.99,,2013-06-10 10:42:00,
2013-06-10 06:52:00,55.0,54.0,30.18,North,0,0.0,-999.0,93,-99.99,,,-99.99,,2013-06-10 10:52:00,
2013-06-10 07:03:00,55.0,54.0,30.18,North,0,0.0,-999.0,93,-99.99,,,-99.99,,2013-06-10 11:03:00,
2013-06-10 07:12:00,57.0,54.0,30.18,North,0,0.0,-999.0,87,-99.99,,,-99.99,,2013-06-10 11:12:00,
2013-06-10 07:22:00,57.0,54.0,30.18,North,10,3.0,-999.0,87,-99.99,,,-99.99,,2013-06-10 11:22:00,
2013-06-10 07:32:00,57.0,55.0,30.18,North,10,5.0,-999.0,93,-99.99,,,-99.99,,2013-06-10 11:32:00,
2013-06-10 07:42:00,57.0,55.0,30.18,North,0,0.0,-999.0,93,-99.99,,,-99.99,,2013-06-10 11:42:00,
2013-06-10 07:52:00,57.0,55.0,30.18,NNE,30,3.0,-999.0,93,-99.99,,,-99.99,,2013-06-10 11:52:00,
2013-06-10 08:02:00,57.0,55.0,30.18,NNE,30,3.0,-999.0,93,-99.99,,,-99.99,,2013-06-10 12:02:00,
2013-06-10 08:11:00,59.0,55.0,30.17,NNE,30,5.0,-999.0,87,-99.99,,,-99.99,,2013-06-10 12:11:00,
2013-06-10 08:22:00,61.0,55.0,30.17,ENE,60,3.0,-999.0,82,-99.99,,,-99.99,,2013-06-10 12:22:00,
2013-06-10 08:32:00,61.0,55.0,30.17,North,0,0.0,-999.0,82,-99.99,,,-99.99,,2013-06-10 12:32:00,
2013-06-10 08:41:00,61.0,57.0,30.17,NE,50,5.0,-999.0,87,-99.99,,,-99.99,,2013-06-10 12:41:00,
2013-06-10 08:52:00,61.0,55.0,30.17,NE,50,3.0,-999.0,82,-99.99,,,-99.99,,2013-06-10 12:52:00,
2013-06-10 09:02:00,61.0,55.0,30.17,NE,50,3.0,-999.0,82,-99.99,,,-99.99,,2013-06-10 13:02:00,
2013-06-10 09:12:00,61.0,55.0,30.17,North,0,0.0,-999.0,82,-99.99,,,-99.99,,2013-06-10 13:12:00,
2013-06-10 09:22:00,63.0,55.0,30.18,ENE,70,3.0,-999.0,77,-99.99,,,-99.99,,2013-06-10 13:22:00,
2013-06-10 09:32:00,63.0,55.0,30.18,North,0,0.0,-999.0,77,-99.99,,,-99.99,,2013-06-10 13:32:00,
2013-06-10 09:42:00,63.0,55.0,30.17,North,0,0.0,-999.0,77,-99.99,,,-99.99,,2013-06-10 13:42:00,
2013-06-10 09:52:00,63.0,55.0,30.17,North,0,0.0,-999.0,77,-99.99,,,-99.99,,2013-06-10 13:52:00,
2013-06-10 10:02:00,63.0,55.0,30.17,North,0,0.0,-999.0,77,-99.99,,,-99.99,,2013-06-10 14:02:00,
2013-06-10 10:12:00,63.0,55.0,30.17,North,0,0.0,-999.0,77,-99.99,,,-99.99,,2013-06-10 14:12:00,
2013-06-10 10:22:00,63.0,57.0,30.17,North,0,0.0,-999.0,82,-99.99,,,-99.99,,2013-06-10 14:22:00,
2013-06-10 10:32:00,63.0,55.0,30.17,North,0,0.0,-999.0,77,-99.99,,,-99.99,,2013-06-10 14:32:00,
2013-06-10 10:42:00,63.0,55.0,30.17,North,0,0.0,-999.0,77,-99.99,,,-99.99,,2013-06-10 14:42:00,
2013-06-10 10:52:00,64.0,57.0,30.17,North,0,0.0,-999.0,77,-99.99,,,-99.99,,2013-06-10 14:52:00,
2013-06-10 11:02:00,64.0,57.0,30.17,North,0,0.0,-999.0,77,-99.99,,,-99.99,,2013-06-10 15:02:00,
2013-06-10 11:12:00,63.0,57.0,30.17,North,0,0.0,-999.0,82,-99.99,,,-99.99,,2013-06-10 15:12:00,
2013-06-10 11:22:00,63.0,59.0,30.16,North,0,0.0,-999.0,88,-99.99,,,-99.99,,2013-06-10 15:22:00,
2013-06-10 11:33:00,63.0,59.0,30.16,North,0,0.0,-999.0,88,-99.99,,,-99.99,,2013-06-10 15:33:00,
2013-06-10 11:43:00,63.0,59.0,30.16,East,90,5.0,-999.0,88,-99.99,,,-99.99,,2013-06-10 15:43:00,
2013-06-10 11:53:00,63.0,59.0,30.16,East,100,3.0,-999.0,88,-99.99,,,-99.99,,2013-06-10 15:53:00,
2013-06-10 12:03:00,63.0,59.0,30.16,East,100,3.0,-999.0,88,-99.99,,,-99.99,,2013-06-10 16:03:00,
2013-06-10 12:13:00,63.0,61.0,30.15,ESE,110,3.0,-999.0,93,-99.99,,,-99.99,,2013-06-10 16:13:00,
2013-06-10 12:23:00,63.0,59.0,30.15,North,0,0.0,-999.0,88,-99.99,,,-99.99,,2013-06-10 16:23:00,
2013-06-10 12:33:00,63.0,61.0,30.15,North,0,0.0,-999.0,93,-99.99,,,-99.99,,2013-06-10 16:33:00,
2013-06-10 12:43:00,63.0,61.0,30.14,North,0,0.0,-999.0,93,-99.99,,,-99.99,,2013-06-10 16:43:00,
2013-06-10 12:52:00,63.0,61.0,30.14,North,0,0.0,-999.0,93,-99.99,,,-99.99,,2013-06-10 16:52:00,
2013-06-10 13:03:00,63.0,61.0,30.14,North,0,0.0,-999.0,93,-99.99,,,-99.99,,2013-06-10 17:03:00,
2013-06-10 13:14:00,64.0,61.0,30.13,North,0,0.0,-999.0,88,-99.99,,,-99.99,,2013-06-10 17:14:00,
2013-06-10 13:25:00,64.0,61.0,30.13,East,100,5.0,-999.0,88,-99.99,,,-99.99,,2013-06-10 17:25:00,
2013-06-10 13:38:00,64.0,61.0,30.12,East,80,5.0,-999.0,88,-99.99,,,-99.99,,2013-06-10 17:38:00,
2013-06-10 13:48:00,64.0,61.0,30.12,East,80,5.0,-999.0,88,-99.99,,,-99.99,,2013-06-10 17:48:00,
2013-06-10 13:57:00,64.0,61.0,30.12,East,100,3.0,-999.0,88,-99.99,,,-99.99,,2013-06-10 17:57:00,
2013-06-10 14:07:00,64.0,61.0,30.12,East,100,3.0,-999.0,88,-99.99,,,-99.99,,2013-06-10 18:07:00,
2013-06-10 14:14:00,64.0,61.0,30.12,East,100,5.0,-999.0,88,-99.99,,,-99.99,,2013-06-10 18:14:00,
2013-06-10 14:25:00,64.0,61.0,30.11,East,100,5.0,-999.0,88,-99.99,,,-99.99,,2013-06-10 18:25:00,
2013-06-10 14:35:00,64.0,61.0,30.11,East,90,5.0,-999.0,88,-99.99,,,-99.99,,2013-06-10 18:35:00,
2013-06-10 14:48:00,64.0,61.0,30.11,East,80,5.0,-999.0,88,-99.99,,,-99.99,,2013-06-10 18:48:00,
2013-06-10 14:55:00,64.0,61.0,30.11,East,90,6.0,-999.0,88,-99.99,,,-99.99,,2013-06-10 18:55:00,
2013-06-10 15:03:00,64.0,61.0,30.11,East,90,6.0,-999.0,88,-99.99,,,-99.99,,2013-06-10 19:03:00,
2013-06-10 15:22:00,64.0,61.0,30.09,East,100,7.0,-999.0,88,-99.99,,,-99.99,,2013-06-10 19:22:00,
2013-06-10 15:31:00,64.0,61.0,30.09,ESE,110,8.0,-999.0,88,-99.99,,,-99.99,,2013-06-10 19:31:00,
2013-06-10 15:42:00,63.0,61.0,30.08,ESE,110,6.0,-999.0,93,-99.99,,,-99.99,,2013-06-10 19:42:00,
2013-06-10 15:52:00,64.0,63.0,30.08,East,90,6.0,-999.0,93,-99.99,,,-99.99,,2013-06-10 19:52:00,
2013-06-10 16:03:00,64.0,63.0,30.08,East,90,6.0,-999.0,93,-99.99,,,-99.99,,2013-06-10 20:03:00,
2013-06-10 16:12:00,64.0,63.0,30.07,SE,130,5.0,-999.0,93,-99.99,,,-99.99,,2013-06-10 20:12:00,
2013-06-10 16:23:00,63.0,63.0,30.06,ESE,110,7.0,-999.0,100,-99.99,,,-99.99,,2013-06-10 20:23:00,
2013-06-10 16:32:00,63.0,61.0,30.06,ESE,110,6.0,-999.0,93,-99.99,,,-99.99,,2013-06-10 20:32:00,
2013-06-10 16:43:00,63.0,61.0,30.06,ESE,120,3.0,-999.0,93,-99.99,,,-99.99,,2013-06-10 20:43:00,
2013-06-10 16:52:00,63.0,63.0,30.05,East,100,5.0,-999.0,100,-99.99,,,-99.99,,2013-06-10 20:52:00,
2013-06-10 17:02:00,63.0,63.0,30.05,East,100,5.0,-999.0,100,-99.99,,,-99.99,,2013-06-10 21:02:00,
2013-06-10 17:22:00,64.0,63.0,30.04,East,90,7.0,-999.0,93,-99.99,,,-99.99,,2013-06-10 21:22:00,
2013-06-10 17:33:00,64.0,63.0,30.03,East,80,7.0,-999.0,93,-99.99,,,-99.99,,2013-06-10 21:33:00,
2013-06-10 17:53:00,63.0,61.0,30.02,East,90,7.0,-999.0,93,-99.99,,,-99.99,,2013-06-10 21:53:00,
2013-06-10 18:02:00,63.0,61.0,30.02,East,90,7.0,-999.0,93,-99.99,,,-99.99,,2013-06-10 22:02:00,
2013-06-10 18:12:00,63.0,61.0,30.01,ENE,70,6.0,-999.0,93,-99.99,,,-99.99,,2013-06-10 22:12:00,
2013-06-10 18:22:00,63.0,61.0,30.01,East,80,6.0,-999.0,93,-99.99,,,-99.99,,2013-06-10 22:22:00,
2013-06-10 18:33:00,63.0,61.0,30.01,East,80,6.0,-999.0,93,-99.99,,,-99.99,,2013-06-10 22:33:00,
2013-06-10 18:42:00,63.0,61.0,30.01,East,80,6.0,-999.0,93,-99.99,,,-99.99,,2013-06-10 22:42:00,
2013-06-10 18:52:00,63.0,61.0,30.00,East,80,6.0,-999.0,93,-99.99,,,-99.99,,2013-06-10 22:52:00,
2013-06-10 19:02:00,63.0,61.0,30.00,East,80,6.0,-999.0,93,-99.99,,,-99.99,,2013-06-10 23:02:00,
2013-06-10 19:12:00,63.0,61.0,30.00,ENE,70,5.0,-999.0,93,-99.99,,,-99.99,,2013-06-10 23:12:00,
2013-06-10 19:22:00,63.0,61.0,29.99,East,80,6.0,-999.0,93,-99.99,,,-99.99,,2013-06-10 23:22:00,
2013-06-10 19:32:00,63.0,61.0,29.99,ENE,70,6.0,-999.0,93,-99.99,,,-99.99,,2013-06-10 23:32:00,
2013-06-10 19:42:00,63.0,61.0,29.99,East,80,7.0,-999.0,93,-99.99,,,-99.99,,2013-06-10 23:42:00,
2013-06-10 19:52:00,63.0,61.0,29.98,ENE,70,5.0,-999.0,93,-99.99,,,-99.99,,2013-06-10 23:52:00,
2013-06-10 20:02:00,63.0,61.0,29.98,ENE,70,5.0,-999.0,93,-99.99,,,-99.99,,2013-06-11 00:02:00,
2013-06-10 20:12:00,63.0,61.0,29.97,ENE,70,7.0,-999.0,93,-99.99,,,-99.99,,2013-06-11 00:12:00,
2013-06-10 20:22:00,61.0,61.0,29.97,ENE,70,7.0,-999.0,100,-99.99,,,-99.99,,2013-06-11 00:22:00,
2013-06-10 20:32:00,61.0,61.0,29.96,East,80,7.0,-999.0,100,-99.99,,,-99.99,,2013-06-11 00:32:00,
2013-06-10 20:42:00,61.0,61.0,29.96,East,80,5.0,-999.0,100,-99.99,,,-99.99,,2013-06-11 00:42:00,
2013-06-10 20:52:00,61.0,61.0,29.96,East,90,3.0,-999.0,100,-99.99,,,-99.99,,2013-06-11 00:52:00,
2013-06-10 21:02:00,61.0,61.0,29.96,East,90,3.0,-999.0,100,-99.99,,,-99.99,,2013-06-11 01:02:00,
2013-06-10 21:11:00,61.0,61.0,29.95,ENE,70,5.0,-999.0,100,-99.99,,,-99.99,,2013-06-11 01:11:00,
2013-06-10 21:21:00,61.0,61.0,29.95,ENE,60,3.0,-999.0,100,-99.99,,,-99.99,,2013-06-11 01:21:00,
2013-06-10 21:31:00,61.0,61.0,29.95,East,80,5.0,-999.0,100,-99.99,,,-99.99,,2013-06-11 01:31:00,
2013-06-10 21:41:00,61.0,61.0,29.95,ENE,70,5.0,-999.0,100,-99.99,,,-99.99,,2013-06-11 01:41:00,
2013-06-10 21:52:00,61.0,61.0,29.95,ENE,70,5.0,-999.0,100,-99.99,,,-99.99,,2013-06-11 01:52:00,
2013-06-10 22:02:00,61.0,61.0,29.95,ENE,70,5.0,-999.0,100,-99.99,,,-99.99,,2013-06-11 02:02:00,
2013-06-10 22:12:00,61.0,61.0,29.94,East,80,6.0,-999.0,100,-99.99,,,-99.99,,2013-06-11 02:12:00,
2013-06-10 22:22:00,61.0,61.0,29.94,ENE,60,3.0,-999.0,100,-99.99,,,-99.99,,2013-06-11 02:22:00,
2013-06-10 22:32:00,61.0,61.0,29.94,ENE,60,5.0,-999.0,100,-99.99,,,-99.99,,2013-06-11 02:32:00,
2013-06-10 22:42:00,61.0,61.0,29.94,East,80,3.0,-999.0,100,-99.99,,,-99.99,,2013-06-11 02:42:00,
2013-06-10 22:52:00,61.0,61.0,29.93,North,0,0.0,-999.0,100,-99.99,,,-99.99,,2013-06-11 02:52:00,
2013-06-10 23:03:00,61.0,61.0,29.93,North,0,0.0,-999.0,100,-99.99,,,-99.99,,2013-06-11 03:03:00,
2013-06-10 23:13:00,61.0,61.0,29.92,North,0,0.0,-999.0,100,-99.99,,,-99.99,,2013-06-11 03:13:00,
2013-06-10 23:22:00,61.0,61.0,29.91,North,0,0.0,-999.0,100,-99.99,,,-99.99,,2013-06-11 03:22:00,
2013-06-10 23:32:00,61.0,61.0,29.90,East,80,3.0,-999.0,100,-99.99,,,-99.99,,2013-06-11 03:32:00,
2013-06-10 23:43:00,61.0,61.0,29.90,ENE,70,3.0,-999.0,100,-99.99,,,-99.99,,2013-06-11 03:43:00,
2013-06-10 23:53:00,61.0,61.0,29.89,ENE,60,3.0,-999.0,100,-99.99,,,-99.99,,2013-06-11 03:53:00,